Year,Month,Day,Hour,Minute,Value (Times are PST for temperature in C)
2017,07,20,00,00,17.90
2017,07,20,00,01,17.90
2017,07,20,00,02,18.00
2017,07,20,00,03,18.00
2017,07,20,00,04,18.00
2017,07,20,00,05,18.00
2017,07,20,00,06,18.00
2017,07,20,00,07,18.00
2017,07,20,00,08,18.10
2017,07,20,00,09,18.10
2017,07,20,00,10,18.10
2017,07,20,00,11,18.10
2017,07,20,00,12,18.10
2017,07,20,00,13,18.10
2017,07,20,00,14,18.10
2017,07,20,00,15,18.10
2017,07,20,00,16,18.10
2017,07,20,00,17,18.20
2017,07,20,00,18,18.20
2017,07,20,00,19,18.20
2017,07,20,00,20,18.20
2017,07,20,00,21,18.20
2017,07,20,00,22,18.20
2017,07,20,00,23,18.20
2017,07,20,00,24,18.10
2017,07,20,00,25,18.10
2017,07,20,00,26,18.00
2017,07,20,00,27,18.00
2017,07,20,00,28,17.90
2017,07,20,00,29,17.90
2017,07,20,00,30,17.80
2017,07,20,00,31,17.80
2017,07,20,00,32,17.80
2017,07,20,00,33,17.80
2017,07,20,00,34,17.80
2017,07,20,00,35,17.80
2017,07,20,00,36,17.70
2017,07,20,00,37,17.70
2017,07,20,00,38,17.70
2017,07,20,00,39,17.70
2017,07,20,00,40,17.70
2017,07,20,00,41,17.70
2017,07,20,00,42,17.70
2017,07,20,00,43,17.70
2017,07,20,00,44,17.70
2017,07,20,00,45,17.70
2017,07,20,00,46,17.70
2017,07,20,00,47,17.70
2017,07,20,00,48,17.70
2017,07,20,00,49,17.70
2017,07,20,00,50,17.70
2017,07,20,00,51,17.70
2017,07,20,00,52,17.70
2017,07,20,00,53,17.70
2017,07,20,00,54,17.70
2017,07,20,00,55,17.70
2017,07,20,00,56,17.70
2017,07,20,00,57,17.70
2017,07,20,00,58,17.70
2017,07,20,00,59,17.70
2017,07,20,01,00,17.70
2017,07,20,01,01,17.70
2017,07,20,01,02,17.70
2017,07,20,01,03,17.70
2017,07,20,01,04,17.70
2017,07,20,01,05,17.70
2017,07,20,01,06,17.70
2017,07,20,01,07,17.70
2017,07,20,01,08,17.70
2017,07,20,01,09,17.70
2017,07,20,01,10,17.70
2017,07,20,01,11,17.70
2017,07,20,01,12,17.70
2017,07,20,01,13,17.70
2017,07,20,01,14,17.70
2017,07,20,01,15,17.80
2017,07,20,01,16,17.80
2017,07,20,01,17,17.80
2017,07,20,01,18,17.80
2017,07,20,01,19,17.80
2017,07,20,01,20,17.80
2017,07,20,01,21,17.80
2017,07,20,01,22,17.80
2017,07,20,01,23,17.80
2017,07,20,01,24,17.90
2017,07,20,01,25,17.90
2017,07,20,01,26,17.90
2017,07,20,01,27,17.90
2017,07,20,01,28,17.90
2017,07,20,01,29,17.90
2017,07,20,01,30,18.00
2017,07,20,01,31,18.00
2017,07,20,01,32,18.00
2017,07,20,01,33,18.00
2017,07,20,01,34,18.00
2017,07,20,01,35,18.10
2017,07,20,01,36,18.10
2017,07,20,01,37,18.10
2017,07,20,01,38,18.10
2017,07,20,01,39,18.10
2017,07,20,01,40,18.10
2017,07,20,01,41,18.10
2017,07,20,01,42,18.10
2017,07,20,01,43,18.10
2017,07,20,01,44,18.10
2017,07,20,01,45,18.10
2017,07,20,01,46,18.10
2017,07,20,01,47,18.10
2017,07,20,01,48,18.10
2017,07,20,01,49,18.10
2017,07,20,01,50,18.10
2017,07,20,01,51,18.10
2017,07,20,01,52,18.10
2017,07,20,01,53,18.10
2017,07,20,01,54,18.10
2017,07,20,01,55,18.10
2017,07,20,01,56,18.10
2017,07,20,01,57,18.10
2017,07,20,01,58,18.10
2017,07,20,01,59,18.10
2017,07,20,02,00,18.00
2017,07,20,02,01,18.00
2017,07,20,02,02,18.00
2017,07,20,02,03,18.00
2017,07,20,02,04,18.00
2017,07,20,02,05,18.00
2017,07,20,02,06,18.00
2017,07,20,02,07,17.90
2017,07,20,02,08,17.90
2017,07,20,02,09,17.90
2017,07,20,02,10,17.90
2017,07,20,02,11,17.90
2017,07,20,02,12,17.90
2017,07,20,02,13,17.90
2017,07,20,02,14,17.90
2017,07,20,02,15,17.90
2017,07,20,02,16,17.90
2017,07,20,02,17,17.90
2017,07,20,02,18,17.80
2017,07,20,02,19,17.80
2017,07,20,02,20,17.80
2017,07,20,02,21,17.80
2017,07,20,02,22,17.80
2017,07,20,02,23,17.80
2017,07,20,02,24,17.80
2017,07,20,02,25,17.80
2017,07,20,02,26,17.80
2017,07,20,02,27,17.80
2017,07,20,02,28,17.70
2017,07,20,02,29,17.70
2017,07,20,02,30,17.70
2017,07,20,02,31,17.70
2017,07,20,02,32,17.70
2017,07,20,02,33,17.70
2017,07,20,02,34,17.70
2017,07,20,02,35,17.70
2017,07,20,02,36,17.70
2017,07,20,02,37,17.70
2017,07,20,02,38,17.70
2017,07,20,02,39,17.70
2017,07,20,02,40,17.70
2017,07,20,02,41,17.70
2017,07,20,02,42,17.70
2017,07,20,02,43,17.60
2017,07,20,02,44,17.70
2017,07,20,02,45,17.60
2017,07,20,02,46,17.60
2017,07,20,02,47,17.60
2017,07,20,02,48,17.60
2017,07,20,02,49,17.60
2017,07,20,02,50,17.60
2017,07,20,02,51,17.60
2017,07,20,02,52,17.60
2017,07,20,02,53,17.60
2017,07,20,02,54,17.60
2017,07,20,02,55,17.60
2017,07,20,02,56,17.60
2017,07,20,02,57,17.60
2017,07,20,02,58,17.60
2017,07,20,02,59,17.60
2017,07,20,03,00,17.60
2017,07,20,03,01,17.60
2017,07,20,03,02,17.60
2017,07,20,03,03,17.50
2017,07,20,03,04,17.50
2017,07,20,03,05,17.50
2017,07,20,03,06,17.40
2017,07,20,03,07,17.40
2017,07,20,03,08,17.30
2017,07,20,03,09,17.30
2017,07,20,03,10,17.20
2017,07,20,03,11,17.20
2017,07,20,03,12,17.10
2017,07,20,03,13,17.10
2017,07,20,03,14,17.00
2017,07,20,03,15,16.90
2017,07,20,03,16,16.90
2017,07,20,03,17,16.80
2017,07,20,03,18,16.80
2017,07,20,03,19,16.70
2017,07,20,03,20,16.60
2017,07,20,03,21,16.60
2017,07,20,03,22,16.50
2017,07,20,03,23,16.50
2017,07,20,03,24,16.40
2017,07,20,03,25,16.40
2017,07,20,03,26,16.30
2017,07,20,03,27,16.30
2017,07,20,03,28,16.30
2017,07,20,03,29,16.20
2017,07,20,03,30,16.20
2017,07,20,03,31,16.20
2017,07,20,03,32,16.20
2017,07,20,03,33,16.10
2017,07,20,03,34,16.10
2017,07,20,03,35,16.10
2017,07,20,03,36,16.10
2017,07,20,03,37,16.10
2017,07,20,03,38,16.10
2017,07,20,03,39,16.00
2017,07,20,03,40,16.00
2017,07,20,03,41,16.00
2017,07,20,03,42,15.90
2017,07,20,03,43,15.90
2017,07,20,03,44,15.90
2017,07,20,03,45,15.90
2017,07,20,03,46,15.90
2017,07,20,03,47,15.90
2017,07,20,03,48,15.80
2017,07,20,03,49,15.80
2017,07,20,03,50,15.80
2017,07,20,03,51,15.80
2017,07,20,03,52,15.80
2017,07,20,03,53,15.80
2017,07,20,03,54,15.80
2017,07,20,03,55,15.80
2017,07,20,03,56,15.70
2017,07,20,03,57,15.70
2017,07,20,03,58,15.70
2017,07,20,03,59,15.70
2017,07,20,04,00,15.70
2017,07,20,04,01,15.70
2017,07,20,04,02,15.70
2017,07,20,04,03,15.70
2017,07,20,05,04,14.70
2017,07,20,05,05,14.70
2017,07,20,05,06,14.60
2017,07,20,05,07,14.60
2017,07,20,05,08,14.60
2017,07,20,05,09,14.60
2017,07,20,05,10,14.60
2017,07,20,05,11,14.60
2017,07,20,05,12,14.60
2017,07,20,05,13,14.60
2017,07,20,05,14,14.60
2017,07,20,05,15,14.60
2017,07,20,05,16,14.60
2017,07,20,05,17,14.60
2017,07,20,05,18,14.60
2017,07,20,05,19,14.60
2017,07,20,05,20,14.60
2017,07,20,05,21,14.70
2017,07,20,05,22,14.70
2017,07,20,05,23,14.70
2017,07,20,05,24,14.60
2017,07,20,05,25,14.60
2017,07,20,05,26,14.60
2017,07,20,05,27,14.60
2017,07,20,05,28,14.60
2017,07,20,05,29,14.60
2017,07,20,05,30,14.60
2017,07,20,05,31,14.60
2017,07,20,05,32,14.60
2017,07,20,05,33,14.60
2017,07,20,05,34,14.60
2017,07,20,05,35,14.60
2017,07,20,05,36,14.60
2017,07,20,05,37,14.60
2017,07,20,05,38,14.60
2017,07,20,05,39,14.60
2017,07,20,05,40,14.60
2017,07,20,05,41,14.60
2017,07,20,05,42,14.50
2017,07,20,05,43,14.50
2017,07,20,05,44,14.50
2017,07,20,05,45,14.50
2017,07,20,05,46,14.50
2017,07,20,05,47,14.50
2017,07,20,05,48,14.50
2017,07,20,05,49,14.50
2017,07,20,05,50,14.50
2017,07,20,05,51,14.50
2017,07,20,05,52,14.40
2017,07,20,05,53,14.40
2017,07,20,05,54,14.40
2017,07,20,05,55,14.40
2017,07,20,05,56,14.40
2017,07,20,05,57,14.40
2017,07,20,05,58,14.40
2017,07,20,05,59,14.40
2017,07,20,06,00,14.40
2017,07,20,06,01,14.40
2017,07,20,06,02,14.40
2017,07,20,06,03,14.40
2017,07,20,06,04,14.40
2017,07,20,06,05,14.40
2017,07,20,06,06,14.40
2017,07,20,06,07,14.40
2017,07,20,06,08,14.40
2017,07,20,06,09,14.40
2017,07,20,06,10,14.40
2017,07,20,06,11,14.40
2017,07,20,06,12,14.40
2017,07,20,06,13,14.40
2017,07,20,06,14,14.40
2017,07,20,06,15,14.40
2017,07,20,06,16,14.40
2017,07,20,06,17,14.40
2017,07,20,06,18,14.30
2017,07,20,06,19,14.30
2017,07,20,06,20,14.30
2017,07,20,06,21,14.30
2017,07,20,06,22,14.30
2017,07,20,06,23,14.30
2017,07,20,06,24,14.30
2017,07,20,06,25,14.30
2017,07,20,06,26,14.30
2017,07,20,06,27,14.30
2017,07,20,06,28,14.30
2017,07,20,06,29,14.30
2017,07,20,06,30,14.30
2017,07,20,06,31,14.30
2017,07,20,06,32,14.30
2017,07,20,06,33,14.30
2017,07,20,06,34,14.30
2017,07,20,06,35,14.30
2017,07,20,06,36,14.30
2017,07,20,06,37,14.30
2017,07,20,06,38,14.30
2017,07,20,06,39,14.30
2017,07,20,06,40,14.40
2017,07,20,06,41,14.40
2017,07,20,06,42,14.40
2017,07,20,06,43,14.40
2017,07,20,06,44,14.40
2017,07,20,06,45,14.40
2017,07,20,06,46,14.40
2017,07,20,06,47,14.40
2017,07,20,06,48,14.40
2017,07,20,06,49,14.40
2017,07,20,06,50,14.40
2017,07,20,06,51,14.40
2017,07,20,06,52,14.40
2017,07,20,06,53,14.40
2017,07,20,06,54,14.40
2017,07,20,06,55,14.40
2017,07,20,06,56,14.40
2017,07,20,06,57,14.40
2017,07,20,06,58,14.40
2017,07,20,06,59,14.30
2017,07,20,07,00,14.30
2017,07,20,07,01,14.30
2017,07,20,07,02,14.30
2017,07,20,07,03,14.30
2017,07,20,07,04,14.20
2017,07,20,07,05,14.20
2017,07,20,07,06,14.20
2017,07,20,07,07,14.20
2017,07,20,07,08,14.20
2017,07,20,07,09,14.20
2017,07,20,07,10,14.10
2017,07,20,07,11,14.10
2017,07,20,07,12,14.10
2017,07,20,07,13,14.10
2017,07,20,07,14,14.10
2017,07,20,07,15,14.00
2017,07,20,07,16,14.00
2017,07,20,07,17,13.90
2017,07,20,07,18,13.90
2017,07,20,07,19,13.90
2017,07,20,07,20,13.90
2017,07,20,07,21,13.90
2017,07,20,07,22,13.90
2017,07,20,07,23,13.80
2017,07,20,07,24,13.80
2017,07,20,07,25,13.80
2017,07,20,07,26,13.80
2017,07,20,07,27,13.80
2017,07,20,07,28,13.80
2017,07,20,07,29,13.80
2017,07,20,07,30,13.80
2017,07,20,07,31,13.90
2017,07,20,07,32,13.90
2017,07,20,07,33,13.90
2017,07,20,07,34,13.90
2017,07,20,07,35,13.90
2017,07,20,07,36,13.90
2017,07,20,07,37,13.90
2017,07,20,07,38,14.00
2017,07,20,07,39,14.00
2017,07,20,07,40,14.00
2017,07,20,07,41,14.10
2017,07,20,07,42,14.10
2017,07,20,07,43,14.10
2017,07,20,07,44,14.10
2017,07,20,07,45,14.10
2017,07,20,07,46,14.20
2017,07,20,07,47,14.20
2017,07,20,07,48,14.20
2017,07,20,07,49,14.20
2017,07,20,07,50,14.20
2017,07,20,07,51,14.20
2017,07,20,07,52,14.20
2017,07,20,07,53,14.20
2017,07,20,07,54,14.20
2017,07,20,07,55,14.20
2017,07,20,07,56,14.20
2017,07,20,07,57,14.20
2017,07,20,07,58,14.20
2017,07,20,07,59,14.20
2017,07,20,08,00,14.30
2017,07,20,08,01,14.30
2017,07,20,08,02,14.30
2017,07,20,08,03,14.30
2017,07,20,08,04,14.30
2017,07,20,08,05,14.30
2017,07,20,08,06,14.30
2017,07,20,08,07,14.30
2017,07,20,08,08,14.30
2017,07,20,08,09,14.40
2017,07,20,08,10,14.40
2017,07,20,08,11,14.40
2017,07,20,08,12,14.50
2017,07,20,08,13,14.50
2017,07,20,08,14,14.50
2017,07,20,08,15,14.60
2017,07,20,08,16,14.60
2017,07,20,08,17,14.60
2017,07,20,08,18,14.70
2017,07,20,08,19,14.70
2017,07,20,08,20,14.70
2017,07,20,08,21,14.80
2017,07,20,08,22,14.80
2017,07,20,08,23,14.80
2017,07,20,08,24,14.90
2017,07,20,08,25,14.90
2017,07,20,08,26,14.90
2017,07,20,08,27,15.00
2017,07,20,08,28,15.00
2017,07,20,08,29,15.10
2017,07,20,08,30,15.10
2017,07,20,08,31,15.10
2017,07,20,08,32,15.10
2017,07,20,08,33,15.10
2017,07,20,08,34,15.20
2017,07,20,08,35,15.20
2017,07,20,08,36,15.20
2017,07,20,08,37,15.30
2017,07,20,08,38,15.30
2017,07,20,08,39,15.30
2017,07,20,08,40,15.40
2017,07,20,08,41,15.40
2017,07,20,08,42,15.50
2017,07,20,08,43,15.50
2017,07,20,08,44,15.60
2017,07,20,08,45,15.70
2017,07,20,08,46,15.70
2017,07,20,08,47,15.70
2017,07,20,08,48,15.80
2017,07,20,08,49,15.80
2017,07,20,08,50,15.80
2017,07,20,08,51,15.90
2017,07,20,08,52,15.90
2017,07,20,08,53,15.90
2017,07,20,08,54,16.00
2017,07,20,08,55,16.00
2017,07,20,08,56,16.00
2017,07,20,08,57,16.00
2017,07,20,08,58,15.90
2017,07,20,08,59,15.90
2017,07,20,09,00,15.90
2017,07,20,09,01,15.90
2017,07,20,09,02,15.80
2017,07,20,09,03,15.80
2017,07,20,09,04,15.80
2017,07,20,09,05,15.70
2017,07,20,09,06,15.70
2017,07,20,09,07,15.70
2017,07,20,09,08,15.60
2017,07,20,09,09,15.60
2017,07,20,09,10,15.60
2017,07,20,09,11,15.60
2017,07,20,09,12,15.60
2017,07,20,09,13,15.50
2017,07,20,09,14,15.50
2017,07,20,09,15,15.40
2017,07,20,09,16,15.40
2017,07,20,09,17,15.40
2017,07,20,09,18,15.40
2017,07,20,09,19,15.40
2017,07,20,09,20,15.40
2017,07,20,09,21,15.30
2017,07,20,09,22,15.30
2017,07,20,09,23,15.30
2017,07,20,09,24,15.30
2017,07,20,09,25,15.30
2017,07,20,09,26,15.30
2017,07,20,09,27,15.40
2017,07,20,09,28,15.40
2017,07,20,09,29,15.50
2017,07,20,09,30,15.60
2017,07,20,09,31,15.60
2017,07,20,09,32,15.70
2017,07,20,09,33,15.80
2017,07,20,09,34,16.00
2017,07,20,09,35,16.10
2017,07,20,09,36,16.10
2017,07,20,09,37,16.20
2017,07,20,09,38,16.20
2017,07,20,09,39,16.30
2017,07,20,09,40,16.30
2017,07,20,09,41,16.30
2017,07,20,09,42,16.40
2017,07,20,09,43,16.40
2017,07,20,09,44,16.50
2017,07,20,09,45,16.50
2017,07,20,09,46,16.60
2017,07,20,09,47,16.70
2017,07,20,09,48,16.70
2017,07,20,09,49,16.80
2017,07,20,09,50,16.90
2017,07,20,09,51,17.10
2017,07,20,09,52,17.20
2017,07,20,09,53,17.30
2017,07,20,09,54,17.40
2017,07,20,09,55,17.40
2017,07,20,09,56,17.50
2017,07,20,09,57,17.60
2017,07,20,09,58,17.70
2017,07,20,09,59,17.80
2017,07,20,10,00,17.90
2017,07,20,10,01,18.00
2017,07,20,10,02,18.10
2017,07,20,10,03,18.10
2017,07,20,10,04,18.20
2017,07,20,10,05,18.40
2017,07,20,10,06,18.70
2017,07,20,10,07,18.70
2017,07,20,10,08,18.80
2017,07,20,10,09,18.80
2017,07,20,10,10,18.90
2017,07,20,10,11,19.00
2017,07,20,10,12,19.10
2017,07,20,10,13,19.10
2017,07,20,10,14,19.20
2017,07,20,10,15,19.20
2017,07,20,10,16,19.20
2017,07,20,10,17,19.20
2017,07,20,10,18,19.20
2017,07,20,10,19,19.30
2017,07,20,10,20,19.30
2017,07,20,10,21,19.30
2017,07,20,10,22,19.30
2017,07,20,10,23,19.40
2017,07,20,10,24,19.40
2017,07,20,10,25,19.40
2017,07,20,10,26,19.40
2017,07,20,10,27,19.40
2017,07,20,10,28,19.40
2017,07,20,10,29,19.40
2017,07,20,10,30,19.40
2017,07,20,10,31,19.40
2017,07,20,10,32,19.40
2017,07,20,10,33,19.40
2017,07,20,10,34,19.30
2017,07,20,10,35,19.40
2017,07,20,10,36,19.50
2017,07,20,10,37,19.50
2017,07,20,10,38,19.60
2017,07,20,10,39,19.60
2017,07,20,10,40,19.60
2017,07,20,10,41,19.70
2017,07,20,10,42,19.70
2017,07,20,10,43,19.80
2017,07,20,10,44,19.80
2017,07,20,10,45,19.80
2017,07,20,10,46,19.90
2017,07,20,10,47,19.90
2017,07,20,10,48,20.00
2017,07,20,10,49,20.10
2017,07,20,10,50,20.20
2017,07,20,10,51,20.20
2017,07,20,10,52,20.20
2017,07,20,10,53,20.10
2017,07,20,10,54,20.10
2017,07,20,10,55,20.20
2017,07,20,10,56,20.20
2017,07,20,10,57,20.30
2017,07,20,10,58,20.40
2017,07,20,10,59,20.50
2017,07,20,11,00,20.60
2017,07,20,11,01,20.70
2017,07,20,11,02,20.70
2017,07,20,11,03,20.70
2017,07,20,11,04,20.80
2017,07,20,11,05,20.80
2017,07,20,11,06,20.80
2017,07,20,11,07,20.90
2017,07,20,11,08,20.90
2017,07,20,11,09,20.90
2017,07,20,11,10,20.90
2017,07,20,11,11,20.90
2017,07,20,11,12,20.80
2017,07,20,11,13,20.70
2017,07,20,11,14,20.70
2017,07,20,11,15,20.60
2017,07,20,11,16,20.70
2017,07,20,11,17,20.70
2017,07,20,11,18,20.60
2017,07,20,11,19,20.60
2017,07,20,11,20,20.70
2017,07,20,11,21,20.70
2017,07,20,11,22,20.60
2017,07,20,11,23,20.60
2017,07,20,11,24,20.70
2017,07,20,11,25,20.70
2017,07,20,11,26,20.80
2017,07,20,11,27,20.80
2017,07,20,11,28,20.80
2017,07,20,11,29,20.70
2017,07,20,11,30,20.60
2017,07,20,11,31,20.50
2017,07,20,11,32,20.50
2017,07,20,11,33,20.40
2017,07,20,11,34,20.40
2017,07,20,11,35,20.40
2017,07,20,11,36,20.30
2017,07,20,11,37,20.30
2017,07,20,11,38,20.20
2017,07,20,11,39,20.20
2017,07,20,11,40,20.20
2017,07,20,11,41,20.20
2017,07,20,11,42,20.20
2017,07,20,11,43,20.30
2017,07,20,11,44,20.40
2017,07,20,11,45,20.50
2017,07,20,11,46,20.60
2017,07,20,11,47,20.70
2017,07,20,11,48,20.80
2017,07,20,11,49,20.90
2017,07,20,11,50,21.10
2017,07,20,11,51,21.10
2017,07,20,11,52,21.20
2017,07,20,11,53,21.30
2017,07,20,11,54,21.30
2017,07,20,11,55,21.30
2017,07,20,11,56,21.30
2017,07,20,11,57,21.30
2017,07,20,11,58,21.30
2017,07,20,11,59,21.40
2017,07,20,12,00,21.40
2017,07,20,12,01,21.40
2017,07,20,12,02,21.40
2017,07,20,12,03,21.40
2017,07,20,12,04,21.40
2017,07,20,12,05,21.30
2017,07,20,12,06,21.40
2017,07,20,12,07,21.40
2017,07,20,12,08,21.40
2017,07,20,12,09,21.50
2017,07,20,12,10,21.50
2017,07,20,12,11,21.40
2017,07,20,12,12,21.40
2017,07,20,12,13,21.50
2017,07,20,12,14,21.60
2017,07,20,12,15,21.80
2017,07,20,12,16,21.90
2017,07,20,12,17,22.00
2017,07,20,12,18,22.10
2017,07,20,12,19,22.20
2017,07,20,12,20,22.20
2017,07,20,12,21,22.20
2017,07,20,12,22,22.20
2017,07,20,12,23,22.10
2017,07,20,12,24,22.10
2017,07,20,12,25,22.10
2017,07,20,12,26,22.10
2017,07,20,12,27,22.20
2017,07,20,12,28,22.10
2017,07,20,12,29,22.10
2017,07,20,12,30,22.10
2017,07,20,12,31,22.10
2017,07,20,12,32,22.10
2017,07,20,12,33,22.20
2017,07,20,12,34,22.20
2017,07,20,12,35,22.30
2017,07,20,12,36,22.30
2017,07,20,12,37,22.40
2017,07,20,12,38,22.40
2017,07,20,12,39,22.40
2017,07,20,12,40,22.40
2017,07,20,12,41,22.30
2017,07,20,12,42,22.20
2017,07,20,12,43,22.10
2017,07,20,12,44,22.10
2017,07,20,12,45,22.10
2017,07,20,12,46,22.10
2017,07,20,12,47,22.10
2017,07,20,12,48,22.10
2017,07,20,12,49,22.10
2017,07,20,12,50,22.10
2017,07,20,12,51,22.10
2017,07,20,12,52,22.00
2017,07,20,12,53,21.90
2017,07,20,12,54,22.00
2017,07,20,12,55,22.00
2017,07,20,12,56,22.10
2017,07,20,12,57,22.20
2017,07,20,12,58,22.30
2017,07,20,12,59,22.40
2017,07,20,13,00,22.40
2017,07,20,13,01,22.40
2017,07,20,13,02,22.40
2017,07,20,13,03,22.40
2017,07,20,13,04,22.30
2017,07,20,13,05,22.30
2017,07,20,13,06,22.20
2017,07,20,13,07,22.20
2017,07,20,13,08,22.10
2017,07,20,13,09,22.20
2017,07,20,13,10,22.20
2017,07,20,13,11,22.30
2017,07,20,13,12,22.40
2017,07,20,13,13,22.40
2017,07,20,13,14,22.40
2017,07,20,13,15,22.40
2017,07,20,13,16,22.50
2017,07,20,13,17,22.60
2017,07,20,13,18,22.70
2017,07,20,13,19,22.80
2017,07,20,13,20,22.80
2017,07,20,13,21,22.90
2017,07,20,13,22,22.90
2017,07,20,13,23,22.90
2017,07,20,13,24,22.80
2017,07,20,13,25,22.80
2017,07,20,13,26,22.80
2017,07,20,13,27,22.90
2017,07,20,13,28,22.90
2017,07,20,13,29,22.80
2017,07,20,13,30,22.80
2017,07,20,13,31,22.80
2017,07,20,13,32,22.80
2017,07,20,13,33,22.90
2017,07,20,13,34,22.90
2017,07,20,13,35,22.90
2017,07,20,13,36,22.90
2017,07,20,13,37,22.90
2017,07,20,13,38,22.80
2017,07,20,13,39,22.70
2017,07,20,13,40,22.70
2017,07,20,13,41,22.60
2017,07,20,13,42,22.50
2017,07,20,13,43,22.50
2017,07,20,13,44,22.50
2017,07,20,13,45,22.50
2017,07,20,13,46,22.50
2017,07,20,13,47,22.50
2017,07,20,13,48,22.50
2017,07,20,13,49,22.50
2017,07,20,13,50,22.50
2017,07,20,13,51,22.40
2017,07,20,13,52,22.40
2017,07,20,13,53,22.30
2017,07,20,13,54,22.30
2017,07,20,13,55,22.30
2017,07,20,13,56,22.30
2017,07,20,13,57,22.30
2017,07,20,13,58,22.30
2017,07,20,13,59,22.40
2017,07,20,14,00,22.40
2017,07,20,14,01,22.40
2017,07,20,14,02,22.30
2017,07,20,14,03,22.20
2017,07,20,14,04,22.10
2017,07,20,14,05,22.10
2017,07,20,14,06,22.00
2017,07,20,14,07,21.90
2017,07,20,14,08,21.80
2017,07,20,14,09,21.70
2017,07,20,14,10,21.70
2017,07,20,14,11,21.70
2017,07,20,14,12,21.70
2017,07,20,14,13,21.60
2017,07,20,14,14,21.60
2017,07,20,14,15,21.60
2017,07,20,14,16,21.60
2017,07,20,14,17,21.60
2017,07,20,14,18,21.60
2017,07,20,14,19,21.70
2017,07,20,14,20,21.80
2017,07,20,14,21,21.80
2017,07,20,14,22,21.90
2017,07,20,14,23,21.90
2017,07,20,14,24,22.00
2017,07,20,14,25,22.10
2017,07,20,14,26,22.10
2017,07,20,14,27,22.20
2017,07,20,14,28,22.20
2017,07,20,14,29,22.30
2017,07,20,14,30,22.30
2017,07,20,14,31,22.40
2017,07,20,14,32,22.40
2017,07,20,14,33,22.30
2017,07,20,14,34,22.30
2017,07,20,14,35,22.20
2017,07,20,14,36,22.20
2017,07,20,14,37,22.20
2017,07,20,14,38,22.30
2017,07,20,14,39,22.30
2017,07,20,14,40,22.30
2017,07,20,14,41,22.40
2017,07,20,14,42,22.40
2017,07,20,14,43,22.40
2017,07,20,14,44,22.40
2017,07,20,14,45,22.50
2017,07,20,14,46,22.50
2017,07,20,14,47,22.50
2017,07,20,14,48,22.40
2017,07,20,14,49,22.40
2017,07,20,14,50,22.40
2017,07,20,14,51,22.50
2017,07,20,14,52,22.60
2017,07,20,14,53,22.70
2017,07,20,14,54,22.80
2017,07,20,14,55,22.80
2017,07,20,14,56,22.90
2017,07,20,14,57,22.80
2017,07,20,14,58,22.70
2017,07,20,14,59,22.50
2017,07,20,15,00,22.40
2017,07,20,15,01,22.30
2017,07,20,15,02,22.20
2017,07,20,15,03,22.20
2017,07,20,15,04,22.10
2017,07,20,15,05,22.10
2017,07,20,15,06,22.20
2017,07,20,15,07,22.20
2017,07,20,15,08,22.30
2017,07,20,15,09,22.30
2017,07,20,15,10,22.40
2017,07,20,15,11,22.40
2017,07,20,15,12,22.30
2017,07,20,15,13,22.30
2017,07,20,15,14,22.30
2017,07,20,15,15,22.30
2017,07,20,15,16,22.30
2017,07,20,15,17,22.30
2017,07,20,15,18,22.30
2017,07,20,15,19,22.30
2017,07,20,15,20,22.30
2017,07,20,15,21,22.40
2017,07,20,15,22,22.50
2017,07,20,15,23,22.60
2017,07,20,15,24,22.70
2017,07,20,15,25,22.70
2017,07,20,15,26,22.80
2017,07,20,15,27,22.80
2017,07,20,15,28,22.80
2017,07,20,15,29,22.80
2017,07,20,15,30,22.70
2017,07,20,15,31,22.60
2017,07,20,15,32,22.50
2017,07,20,15,33,22.40
2017,07,20,15,34,22.30
2017,07,20,15,35,22.20
2017,07,20,15,36,22.10
2017,07,20,15,37,22.10
2017,07,20,15,38,22.00
2017,07,20,15,39,21.90
2017,07,20,15,40,21.80
2017,07,20,15,41,21.70
2017,07,20,15,42,21.60
2017,07,20,15,43,21.50
2017,07,20,15,44,21.40
2017,07,20,15,45,21.30
2017,07,20,15,46,21.30
2017,07,20,15,47,21.20
2017,07,20,15,48,21.00
2017,07,20,15,49,20.90
2017,07,20,15,50,20.80
2017,07,20,15,51,20.70
2017,07,20,15,52,20.70
2017,07,20,15,53,20.70
2017,07,20,15,54,20.70
2017,07,20,15,55,20.80
2017,07,20,15,56,20.80
2017,07,20,15,57,20.80
2017,07,20,15,58,20.80
2017,07,20,15,59,20.70
2017,07,20,16,00,20.60
2017,07,20,16,01,20.60
2017,07,20,16,02,20.60
2017,07,20,16,03,20.50
2017,07,20,16,04,20.40
2017,07,20,16,05,20.40
2017,07,20,16,06,20.30
2017,07,20,16,07,20.20
2017,07,20,16,08,20.20
2017,07,20,16,09,20.20
2017,07,20,17,04,19.70
2017,07,20,17,05,19.70
2017,07,20,17,06,19.70
2017,07,20,17,07,19.70
2017,07,20,17,08,19.70
2017,07,20,17,09,19.70
2017,07,20,17,10,19.70
2017,07,20,17,11,19.80
2017,07,20,17,12,19.80
2017,07,20,17,13,19.80
2017,07,20,17,14,19.80
2017,07,20,17,15,19.80
2017,07,20,17,16,19.80
2017,07,20,17,17,19.80
2017,07,20,17,18,19.80
2017,07,20,17,19,19.90
2017,07,20,17,20,19.90
2017,07,20,17,21,19.90
2017,07,20,17,22,20.00
2017,07,20,17,23,20.00
2017,07,20,17,24,20.00
2017,07,20,17,25,19.90
2017,07,20,17,26,19.90
2017,07,20,17,27,19.80
2017,07,20,17,28,19.80
2017,07,20,17,29,19.80
2017,07,20,17,30,19.70
2017,07,20,17,31,19.70
2017,07,20,17,32,19.70
2017,07,20,17,33,19.60
2017,07,20,17,34,19.60
2017,07,20,17,35,19.60
2017,07,20,17,36,19.50
2017,07,20,17,37,19.50
2017,07,20,17,38,19.50
2017,07,20,17,39,19.50
2017,07,20,17,40,19.50
2017,07,20,17,41,19.50
2017,07,20,17,42,19.40
2017,07,20,17,43,19.40
2017,07,20,17,44,19.40
2017,07,20,17,45,19.40
2017,07,20,17,46,19.40
2017,07,20,17,47,19.40
2017,07,20,17,48,19.40
2017,07,20,17,49,19.50
2017,07,20,17,50,19.50
2017,07,20,17,51,19.50
2017,07,20,17,52,19.50
2017,07,20,17,53,19.50
2017,07,20,17,54,19.50
2017,07,20,17,55,19.50
2017,07,20,17,56,19.40
2017,07,20,17,57,19.40
2017,07,20,17,58,19.30
2017,07,20,17,59,19.30
2017,07,20,18,00,19.30
2017,07,20,18,01,19.20
2017,07,20,18,02,19.20
2017,07,20,18,03,19.20
2017,07,20,18,04,19.20
2017,07,20,18,05,19.20
2017,07,20,18,06,19.20
2017,07,20,18,07,19.20
2017,07,20,18,08,19.20
2017,07,20,18,09,19.20
2017,07,20,18,10,19.20
2017,07,20,18,11,19.20
2017,07,20,18,12,19.20
2017,07,20,18,13,19.20
2017,07,20,18,14,19.20
2017,07,20,18,15,19.20
2017,07,20,18,16,19.10
2017,07,20,18,17,19.10
2017,07,20,18,18,19.00
2017,07,20,18,19,19.00
2017,07,20,18,20,19.00
2017,07,20,18,21,19.00
2017,07,20,18,22,19.00
2017,07,20,18,23,19.10
2017,07,20,18,24,19.10
2017,07,20,18,25,19.10
2017,07,20,18,26,19.10
2017,07,20,18,27,19.10
2017,07,20,18,28,19.10
2017,07,20,18,29,19.10
2017,07,20,18,30,19.10
2017,07,20,18,31,19.10
2017,07,20,18,32,19.10
2017,07,20,18,33,19.10
2017,07,20,18,34,19.10
2017,07,20,18,35,19.10
2017,07,20,18,36,19.10
2017,07,20,18,37,19.10
2017,07,20,18,38,19.10
2017,07,20,18,39,19.10
2017,07,20,18,40,19.20
2017,07,20,18,41,19.20
2017,07,20,18,42,19.20
2017,07,20,18,43,19.30
2017,07,20,18,44,19.30
2017,07,20,18,45,19.30
2017,07,20,18,46,19.40
2017,07,20,18,47,19.50
2017,07,20,18,48,19.60
2017,07,20,18,49,19.70
2017,07,20,18,50,19.80
2017,07,20,18,51,19.90
2017,07,20,18,52,20.00
2017,07,20,18,53,20.10
2017,07,20,18,54,20.10
2017,07,20,18,55,20.10
2017,07,20,18,56,20.10
2017,07,20,18,57,20.10
2017,07,20,18,58,20.10
2017,07,20,18,59,20.10
2017,07,20,19,00,20.10
2017,07,20,19,01,20.10
2017,07,20,19,02,20.20
2017,07,20,19,03,20.20
2017,07,20,19,04,20.20
2017,07,20,19,05,20.30
2017,07,20,19,06,20.30
2017,07,20,19,07,20.40
2017,07,20,19,08,20.40
2017,07,20,19,09,20.40
2017,07,20,19,10,20.40
2017,07,20,19,11,20.50
2017,07,20,19,12,20.60
2017,07,20,19,13,20.60